This is the latest recevied weather packets stored in our database for station/object EB2GLU-13. If no packets are shown the sender has not sent any weather packets the latest 10 day(s).
| Time | Temp. | Humidity | Pressure | Rain* | Wind** | Luminosity | Snow |
|---|---|---|---|---|---|---|---|
| 1777802985 | 22.78° C | 63% | 1012.4 hPa | 0 mm | - | - | - |
| 1777802235 | 23.89° C | 62% | 1012.4 hPa | 0 mm | - | - | - |
| 1777801485 | 22.22° C | 65% | 1012.5 hPa | 0 mm | - | - | - |
| 1777800735 | 21.11° C | 68% | 1012.6 hPa | 0 mm | - | - | - |
| 1777799985 | 21.67° C | 66% | 1012.5 hPa | 0 mm | - | - | - |
| 1777799235 | 20.56° C | 68% | 1012.6 hPa | 0 mm | - | - | - |
| 1777798485 | 20° C | 73% | 1012.6 hPa | 0 mm | - | - | - |
| 1777797735 | 18.33° C | 79% | 1012.6 hPa | 0 mm | - | - | - |
| 1777796985 | 19.44° C | 79% | 1012.8 hPa | 0 mm | - | - | - |
| 1777796235 | 19.44° C | 79% | 1012.8 hPa | 0 mm | - | - | - |
| 1777795485 | 18.33° C | 82% | 1012.8 hPa | 0 mm | - | - | - |
| 1777794735 | 17.78° C | 84% | 1012.7 hPa | 0 mm | - | - | - |
| 1777793985 | 17.22° C | 85% | 1012.8 hPa | 0 mm | - | - | - |
| 1777793235 | 16.67° C | 86% | 1012.9 hPa | 0 mm | - | - | - |
| 1777792485 | 15.56° C | 88% | 1012.9 hPa | 0 mm | - | - | - |
| 1777791735 | 15.56° C | 88% | 1013 hPa | 0 mm | - | - | - |
| 1777790985 | 15° C | 88% | 1013 hPa | 0 mm | - | - | - |
| 1777790235 | 14.44° C | 90% | 1012.9 hPa | 0 mm | - | - | - |
| 1777789485 | 13.33° C | 93% | 1012.9 hPa | 0 mm | - | - | - |
| 1777788735 | 12.78° C | 93% | 1013 hPa | 0 mm | - | - | - |
| 1777787985 | 12.22° C | 93% | 1012.6 hPa | 0 mm | - | - | - |
| 1777787235 | 12.22° C | 93% | 1012.8 hPa | 0 mm | - | - | - |
| 1777786485 | 12.22° C | 94% | 1012.6 hPa | 0 mm | - | - | - |
| 1777785735 | 12.22° C | 93% | 1012.8 hPa | 0 mm | - | - | - |
| 1777784985 | 12.22° C | 93% | 1012.6 hPa | 0 mm | - | - | - |
* Rain latest hour (hover to see other rain measurements)
** Current wind speed in m/s (hover to see current wind gust speed)